This demonstration page uses our WeatherBlox Daily Observations layout. Learn more.

Left ArrowRight Arrow

39.01783, -85.05884

Hourly Observations for March 5, 2022

Temp ( °F °C ) Dew Point ( °F °C ) Humidity (%) Winds ( mph kmh ) Pressure ( in mb ) Visibility ( mi km ) Precip ( " mm )
12:52 am 00:52 Mostly Cloudy 46 7.8 20 -6.7 35 35 ESE 8 13 30.18 1022 10 16 0.00 0.00
1:52 am 01:52 Mostly Cloudy 47 8.3 20 -6.7 34 34 ESE 10 17 30.18 1022 10 16 0.00 0.00
2:52 am 02:52 Cloudy 47 8.3 19 -7.2 33 33 SE 10 17 30.16 1021 10 16 0.00 0.00
3:52 am 03:52 Cloudy 46 7.8 20 -6.7 35 35 SE 12 19 30.14 1021 10 16 0.00 0.00
4:52 am 04:52 Cloudy 47 8.3 22 -5.6 37 37 SE 9 15 30.12 1020 10 16 0.00 0.00
5:52 am 05:52 Cloudy 47 8.3 26 -3.3 44 44 SSE 9 15 30.14 1021 10 16 0.00 0.00
6:52 am 06:52 Cloudy 47 8.3 30 -1.1 52 52 S 8 13 30.14 1021 10 16 0.00 0.00
7:52 am 07:52 Partly Cloudy 48 8.9 33 0.6 56 56 S 8 13 30.14 1021 10 16 0.00 0.00
8:52 am 08:52 Mostly Sunny 56 13.3 38 3.3 51 51 S 10 17 30.14 1021 10 16 0.00 0.00
9:52 am 09:52 Mostly Sunny 63 17.2 42 5.6 47 47 S 17 28 30.13 1020 9 14 0.00 0.00
10:52 am 10:52 Sunny 69 20.6 43 6.1 39 39 SSW 15 24 30.11 1020 8 13 0.00 0.00
11:52 am 11:52 Mostly Sunny 72 22.2 43 6.1 35 35 SW 15 24 30.09 1019 9 14 0.00 0.00
12:52 pm 12:52 Mostly Sunny 74 23.3 40 4.4 29 29 SSW 23 37 30.06 1018 9 14 0.00 0.00
1:52 pm 13:52 Sunny 75 23.9 38 3.3 26 26 SW 18 30 30.03 1017 9 14 0.00 0.00
2:52 pm 14:52 Mostly Sunny 75 23.9 36 2.2 24 24 SSW 29 46 30.01 1016 10 16 0.00 0.00
3:52 pm 15:52 Partly Cloudy 74 23.3 38 3.3 27 27 SSW 22 35 30.00 1016 10 16 0.00 0.00
4:52 pm 16:52 Cloudy 71 21.7 47 8.3 42 42 SSW 21 33 30.00 1016 10 16 0.00 0.00
5:52 pm 17:52 Mostly Cloudy 70 21.1 49 9.4 47 47 SSW 22 35 30.00 1016 10 16 0.00 0.00
6:52 pm 18:52 Cloudy 69 20.6 50 10 51 51 SSW 12 19 30.00 1016 10 16 0.00 0.00
7:52 pm 19:52 Cloudy 68 20 50 10 53 53 SSW 10 17 30.00 1016 10 16 0.00 0.00
8:52 pm 20:52 Mostly Cloudy 67 19.4 50 10 55 55 S 14 22 29.98 1015 10 16 0.00 0.00
9:52 pm 21:52 Mostly Cloudy 67 19.4 51 10.6 57 57 SSW 13 20 29.97 1015 10 16 0.00 0.00
10:52 pm 22:52 Cloudy 68 20 50 10 53 53 S 17 28 29.95 1014 10 16 0.00 0.00
11:52 pm 23:52 Cloudy 69 20.6 50 10 51 51 SSW 18 30 29.93 1014 10 16 0.00 0.00

Powered by AerisWeather